sat.trackr.live / text

‹ back to catalog

STARLINK-36324

NORAD 68091 · 2026-042Y

PAYLOAD ACTIVE UNKNOWN

§ Identity

Operator
Country
US
Launch date
2026-03-04
Launch site
AFETR
Launch vehicle
Mass (kg)
RCS (m²)

Purposes: comms

External: N2YO · Heavens-Above · Gunter

§ Orbital elements

Epoch: 2026-09-19T13:57:24.179904Z

Period
93.85 min
Inclination
53.1613°
Eccentricity
0.0000998
Mean motion
15.34418518 rev/d
Perigee alt
462.0 km
Apogee alt
463.3 km
Semi-major
6,840.8 km
B*
8.2177e-4
RAAN
353.6577°
Arg perigee
57.2860°
Mean anomaly
302.8239°
Rev number
3,205

§ Raw data

STARLINK-363241 68091U 26042Y   26262.58152986  .00027507  00000+0  82177-3 0  99982 68091  53.1613 353.6577 0000998  57.2860 302.8239 15.34418518 32052

JSON: /api/v1/satellites/68091 · /tle

For live sub-satellite position, see the globe view (requires WebGL).

§ Visibility from observer

Set your observer location to see the next 7 days of passes ≥ 10°. The values pass through the URL so the page stays shareable.

No JS? Fill the form by hand. The geolocation button needs JavaScript.